Home > Time Zones > World Clock > Weather > Norway > Alta > Past weeks

Flag for Norway Weather past 2 weeks in Alta, Norway

Now
36 °F

Chilly.


Feels Like: 33 °F
Forecast: 26 / 35 °F
Wind: 3 mph from South

Location: Alta Lufthavn

Current Time: Apr 27, 2015 at 12:36:34 PM

Latest Report: Apr 27, 2015 at 11:00 AM


Visibility: N/A

Pressure: 29.73 "Hg

Humidity: 48%

Dew point: 18 °F

Location of AltaLocation

Historic Weather in Alta — Graph

°F

Alta temperature yesterday

Maximum temperature yesterday: 37 °F (at 3:00 PM)
Minimum temperature yesterday: 32 °F (at 11:00 PM)
Average temperature yesterday: 35 °F

Past Weeks' High & Low Weather Summary

 TemperatureHumidityPressure
High46 °F (Apr 18, 4:00 PM)95% (Apr 21, 4:00 PM)30.03 "Hg (Apr 21, 4:00 PM)
Low26 °F (Apr 17, 4:00 AM)40% (Apr 24, 3:00 PM)29.23 "Hg (Apr 23, 3:00 AM)
Average37 °F71%29.72 "Hg
* Reported Apr 12 11:00 AM — Apr 27 11:00 AM, Alta, Weather by CustomWeather, © 2015

Note: Actual official high and low records may vary slightly from our data, if they occured in-between our weather recording intervals... More about our weather records

Advertising

Alta weather history for previous 24 hours

 ConditionsComfort  
Time TempWeatherWind HumidityBarometerVisibility
11:00 AM
Mon, Apr 27
36 °FChilly.3 mph48%29.73 "HgN/A
10:00 AM35 °FChilly.5 mph48%29.73 "HgN/A
9:00 AM34 °FChilly.5 mph49%29.74 "HgN/A
8:00 AM33 °FChilly.3 mph51%29.74 "HgN/A
7:00 AM33 °FChilly.2 mph52%29.75 "HgN/A
6:00 AM33 °FChilly.3 mph53%29.75 "HgN/A
5:00 AM32 °FChilly.5 mph54%29.76 "HgN/A
4:00 AM32 °FChilly.1 mph56%29.77 "HgN/A
3:00 AM32 °FChilly.1 mph59%29.78 "HgN/A
2:00 AM32 °FChilly.6 mph60%29.78 "HgN/A
1:00 AM31 °FChilly.5 mph64%29.80 "HgN/A
12:00 AM31 °FChilly.5 mph64%29.81 "HgN/A
11:00 PM
Sun, Apr 26
32 °FChilly.3 mph59%29.82 "HgN/A
10:00 PM34 °FChilly.5 mph55%29.83 "HgN/A
9:00 PM34 °FChilly.5 mph51%29.83 "HgN/A
8:00 PM35 °FChilly.6 mph51%29.83 "HgN/A
7:00 PM36 °FChilly.5 mph46%29.83 "HgN/A
6:00 PM35 °FChilly.6 mph46%29.84 "HgN/A
5:00 PM36 °FChilly.7 mph46%29.85 "HgN/A
4:00 PM37 °FChilly.7 mph45%29.85 "HgN/A
3:00 PM37 °FChilly.6 mph51%29.85 "HgN/A
2:00 PM37 °FChilly.5 mph55%29.86 "HgN/A
1:00 PM36 °FChilly.5 mph56%29.87 "HgN/A
12:00 PM36 °FChilly.3 mph58%29.88 "HgN/A
Weather by CustomWeather, © 2015

See weather overviewHow to use our weather pages